Simultaneous Nadir Overpasses (SNOs) Predictions

Prediction of SNOs between LANDSAT-8 and TERRA Satellite Orbit:

Table of predicted SNOs for the next 14.0 days since TLE Epoch: 8/31/2024
Index Date (LANDSAT-8) Time (LANDSAT-8) Lat,Lon (LANDSAT-8) SZA (LANDSAT-8 ) Date (TERRA) Time (TERRA) Lat,Lon (TERRA) SZA (TERRA ) Distance(km) Time Diff (sec)
1 09/01/2024 03:16:40 -81.78, 19.26 101.08 09/01/2024 03:17:48 -81.78, 19.47 101.01 3.31 68
2 09/01/2024 04:06:06 81.78,-172.84 78.97 09/01/2024 04:07:09 81.78,-172.74 79.02 1.52 63
3 09/01/2024 04:55:32 -81.78, -4.97 100.99 09/01/2024 04:56:29 -81.78, -5.05 100.97 1.32 57
4 09/01/2024 05:44:59 81.78, 162.51 79.01 09/01/2024 05:45:51 81.79, 162.32 79.01 3.14 52
5 09/01/2024 06:34:25 -81.78, -29.63 100.96 09/01/2024 06:35:10 -81.77, -29.58 100.93 0.90 45
6 09/01/2024 07:23:52 81.78, 137.85 79.04 09/01/2024 07:24:32 81.78, 137.80 79.06 1.01 40
7 09/01/2024 08:13:19 -81.78, -54.70 100.98 09/01/2024 08:13:52 -81.78, -54.51 100.93 3.01 33
8 09/01/2024 09:02:45 81.78, 113.20 79.07 09/01/2024 09:03:13 81.78, 113.27 79.10 1.16 28
9 09/01/2024 09:52:11 -81.77, -78.94 100.89 09/01/2024 09:52:33 -81.78, -79.04 100.89 1.62 22
10 09/01/2024 10:41:38 81.78, 88.54 79.11 09/01/2024 10:41:54 81.77, 88.75 79.14 3.29 16
11 09/01/2024 11:31:04 -81.77,-103.59 100.86 09/01/2024 11:31:14 -81.77,-103.56 100.85 0.56 10
12 09/01/2024 12:20:31 81.78, 63.89 79.14 09/01/2024 12:20:36 81.78, 63.81 79.14 1.40 5
13 09/01/2024 13:09:57 -81.77,-128.25 100.82 09/01/2024 13:09:55 -81.77,-128.08 100.80 2.69 2
14 09/01/2024 13:59:24 81.77, 39.23 79.18 09/01/2024 13:59:17 81.78, 39.28 79.18 0.82 7
15 09/01/2024 14:48:50 -81.77,-152.90 100.79 09/01/2024 14:48:37 -81.77,-153.02 100.81 1.93 13
16 09/01/2024 15:38:17 81.77, 14.57 79.21 09/01/2024 15:37:58 81.77, 14.76 79.22 2.93 19
17 09/01/2024 16:27:43 -81.77,-177.56 100.75 09/01/2024 16:27:18 -81.77,-177.55 100.77 0.22 25
18 09/01/2024 17:17:09 81.77, -9.66 79.30 09/01/2024 17:16:39 81.77, -9.77 79.27 1.74 30
19 09/01/2024 18:06:36 -81.77, 157.78 100.72 09/01/2024 18:05:59 -81.76, 157.93 100.72 2.37 37
20 09/01/2024 18:56:03 81.77, -34.74 79.28 09/01/2024 18:55:21 81.77, -34.71 79.26 0.59 42
21 09/01/2024 19:45:29 -81.77, 133.13 100.69 09/01/2024 19:44:41 -81.77, 132.99 100.73 2.24 48
22 09/01/2024 20:34:56 81.77, -59.40 79.31 09/01/2024 20:34:02 81.77, -59.24 79.30 2.58 54
23 09/01/2024 21:24:22 -81.77, 108.47 100.65 09/01/2024 21:23:22 -81.77, 108.46 100.69 0.17 60
24 09/01/2024 22:13:48 81.76, -83.63 79.40 09/01/2024 22:12:43 81.76, -83.76 79.35 2.08 65



Historial Predications of SNOs between LANDSAT-8 and TERRA
